JE2VQT13 Weather Reports


Display with metric or nautical units.
time (UTC)temp
F
wind
direction
speed
MPH
gust
MPH
rain 1hr
in
rain 24hr
in
rain mn
in
humidity
%
barometer
mb
20260504081507 63 163 0.0 2.0 0.00 0.00 0.00 71 1008.1
20260504050008 71 190 1.0 3.0 0.00 0.00 0.00 55 1004.0
20260504044507 72 183 1.0 5.0 0.00 0.00 0.00 53 1003.7
20260504043007 74 189 1.0 9.0 0.00 0.00 0.00 43 1003.4
20260504040007 74 195 4.0 12.0 0.00 0.00 0.00 44 1003.0
20260504034507 73 188 2.0 12.0 0.00 0.00 0.00 46 1003.1
20260504033007 73 198 0.0 10.0 0.00 0.00 0.00 51 1003.3
20260504031507 73 207 3.0 12.0 0.00 0.00 0.00 51 1003.3
20260504030007 73 201 2.0 12.0 0.00 0.00 0.00 50 1003.1
20260504024507 76 194 3.0 9.0 0.00 0.00 0.00 49 1003.2
20260504023007 76 190 3.0 8.0 0.00 0.00 0.00 53 1003.3
20260504021508 75 203 2.0 8.0 0.00 0.00 0.00 55 1003.3
20260504020009 75 169 1.0 8.0 0.00 0.00 0.00 56 1003.3
20260504013009 74 197 2.0 8.0 0.00 0.00 0.00 60 1003.4
20260504010007 74 185 1.0 3.0 0.00 0.00 0.00 66 1003.5
20260504004508 73 189 0.0 1.0 0.00 0.00 0.00 70 1003.3
20260504000006 72 192 0.0 2.0 0.00 0.00 0.00 73 1003.0
20260503234507 71 190 0.0 1.0 0.00 0.00 0.00 75 1003.3
20260503233006 69 190 0.0 1.0 0.00 0.00 0.00 78 1003.2
20260503230006 67 190 0.0 0.0 0.00 0.00 0.00 87 1003.0
20260503224508 66 190 0.0 0.0 0.00 0.00 0.00 88 1002.9
20260503223007 66 190 0.0 0.0 0.00 0.00 0.00 90 1002.7
20260503220006 65 190 0.0 0.0 0.00 0.00 0.00 93 1002.1
20260503211507 65 197 0.0 1.0 0.00 0.00 0.00 95 1001.8
20260503210006 65 190 0.0 0.0 0.00 0.00 0.00 95 1001.7
20260503204507 65 190 0.0 1.0 0.00 0.00 0.00 96 1000.9
20260503203006 65 190 0.0 1.0 0.00 0.00 0.00 96 1001.2
20260503201507 66 190 1.0 3.0 0.00 0.00 0.00 96 1001.1
20260503200006 66 190 0.0 1.0 0.00 0.00 0.00 96 1000.8
20260503193006 67 197 0.0 3.0 0.00 0.00 0.00 96 1000.0
20260503191506 67 224 0.0 1.0 0.00 0.00 0.00 96 999.6
20260503190007 67 190 0.0 2.0 0.00 0.00 0.00 96 999.6
20260503184507 68 190 0.0 3.0 0.00 0.00 0.00 96 999.3
20260503183007 68 212 0.0 3.0 0.00 0.00 0.00 96 998.9
20260503181506 68 210 1.0 3.0 0.00 0.00 0.00 96 999.0
20260503180006 68 190 0.0 3.0 0.00 0.00 0.00 95 998.4
20260503174506 68 190 0.0 3.0 0.00 0.00 0.00 95 998.6
20260503173007 68 190 0.0 2.0 0.00 0.00 0.00 95 998.5
20260503171506 68 141 1.0 5.0 0.00 0.00 0.00 95 998.8